Dewpoint
76 75 74 74 73 73 73 73 71 71 69 69 69 68 67 67 66 67 69 67 68 66 67 70 71 68 66 66 63 66 71 68 67 69 71 70 69 70 71 74 73 72 73 71 69 67 71 70 69 68 70 67 66 64 62 61 61 63 67 69 65 66 67 74 73 72 74 75 73 73 69 70 75 75 75 76 74 72 73 74 74 71 69 68 69
75 76 75 73 72 73 72 72 72 71 69 68 69 69 68 67 66 72 70 72 70 67 69 66 66 67 66 66 67 64 68 71 66 66 67 70 69 64 65 71 74 72 72 72 72 71 70 73 72 67 69 68 67 65 63 61 59 58 64 64 65 64 70 72 73 72 70 73 73 72 67 71 74 75 75 75 76 73 72 72 73 71 69 69 69
77 75 73 73 72 71 71 72 71 70 68 68 67 69 70 70 72 69 70 69 69 69 68 67 71 70 69 68 70 67 70 66 66 66 68 70 70 68 69 69 70 69 69 71 71 72 71 71 70 70 65 66 66 65 64 63 61 60 59 61 64 67 71 77 75 73 72 72 73 71 73 74 73 75 74 75 72 72 72 72 72 71 71 70 69
74 73 74 72 71 69 70 70 70 69 68 67 71 72 71 70 73 76 73 71 69 70 68 69 70 73 70 69 68 71 71 69 67 67 69 68 70 72 72 73 70 68 68 67 68 71 72 72 71 71 71 70 70 70 68 66 65 66 64 66 76 74 75 76 75 72 72 70 73 70 72 71 72 73 76 74 71 72 72 72 73 72 72 71 69
74 73 74 73 70 69 66 66 68 69 69 70 73 74 72 72 73 72 75 74 72 73 74 73 72 71 68 68 69 71 69 69 70 67 67 69 71 70 73 73 71 71 70 71 72 71 71 71 71 71 71 70 71 70 69 68 67 66 66 70 73 73 76 75 73 73 71 69 69 71 74 76 78 75 73 72 72 70 70 72 73 73 71 72 71
76 75 74 75 72 68 67 69 71 72 75 75 73 74 76 74 72 74 74 74 73 76 74 75 73 72 70 68 68 69 70 70 70 71 68 68 74 74 73 71 71 73 72 70 69 70 70 71 71 71 71 70 71 73 74 72 69 67 68 72 74 75 75 77 74 74 73 71 71 71 73 72 75 75 74 72 71 71 71 72 71 71 71 70 70
74 75 75 73 73 72 71 73 72 73 74 74 76 75 73 74 73 74 75 75 75 76 73 74 75 73 72 72 69 69 69 68 72 73 73 74 73 71 70 70 72 71 71 71 70 69 70 69 70 72 73 73 73 73 72 73 73 73 75 74 78 75 74 75 76 75 73 71 71 71 71 72 73 73 74 72 73 72 70 70 70 69 70 69 71
72 70 70 70 72 72 73 73 73 73 74 74 74 73 72 72 72 74 75 74 73 73 72 72 73 72 71 70 71 71 72 72 74 76 76 75 74 72 73 73 72 72 72 71 72 72 71 71 71 70 70 73 76 74 75 74 75 73 73 75 76 76 75 75 75 74 74 73 71 70 71 72 74 73 75 73 72 72 71 70 69 69 71 72 71
70 70 70 69 71 73 73 73 73 74 74 74 73 72 72 73 73 74 75 73 72 72 72 72 71 71 70 71 71 71 72 73 72 73 74 75 74 73 73 72 72 72 72 71 71 71 72 72 71 72 73 73 75 74 74 74 74 74 75 76 75 74 74 74 74 73 72 72 72 73 72 72 72 73 73 71 70 69 73 71 69 70 71 71 72
71 70 70 70 72 73 73 73 74 74 75 73 73 73 74 75 75 75 75 75 75 75 75 73 73 72 71 71 71 71 73 72 73 75 76 74 73 73 73 73 73 73 73 73 73 73 73 73 72 74 74 73 73 73 74 75 76 75 73 73 74 74 74 74 74 73 73 72 71 71 71 70 71 71 71 72 72 73 73 70 68 69 70 69 70
72 71 70 71 72 73 73 72 73 74 75 73 73 74 75 73 74 75 75 75 75 76 75 74 73 73 73 71 72 71 70 70 74 71 71 73 73 73 74 74 74 74 73 73 72 72 72 72 73 73 73 73 73 73 74 75 76 76 75 75 76 74 72 71 71 71 72 71 71 70 70 70 69 69 70 72 71 72 71 71 70 71 67 66 65
71 71 71 71 73 74 73 73 74 74 74 74 74 75 75 75 75 74 75 74 76 75 75 74 74 74 73 72 72 71 72 74 69 70 72 71 74 72 71 71 73 75 74 72 72 72 72 72 71 71 72 71 72 72 73 75 75 74 73 73 73 72 72 72 71 70 70 70 70 71 70 69 69 70 71 71 71 71 72 72 71 70 67 66 67
71 72 73 73 74 74 74 74 74 74 74 74 74 75 75 74 74 74 74 74 74 74 74 73 72 71 71 71 71 73 72 73 67 68 68 68 70 71 71 72 74 74 74 74 72 71 72 70 71 71 71 73 73 73 73 74 75 75 75 73 73 71 68 68 69 71 71 71 70 70 70 70 70 71 71 71 71 71 72 69 69 69 68 67 67
72 72 73 73 73 74 74 74 73 74 74 74 74 74 74 74 74 75 75 75 74 74 74 73 73 73 72 73 73 71 72 72 67 68 67 67 69 72 70 72 73 73 74 74 73 73 71 70 70 70 71 73 73 73 73 73 73 73 73 72 72 73 72 70 69 68 69 70 70 69 71 71 69 70 71 71 70 69 69 69 68 68 68 68 69
72 72 72 73 73 73 74 73 73 73 74 74 74 74 74 73 74 75 74 74 73 74 73 73 73 73 72 73 73 72 71 70 67 67 66 66 68 71 72 71 71 73 73 73 73 72 72 72 71 71 71 72 73 73 72 72 72 72 71 71 71 71 72 72 73 74 72 71 70 70 71 72 71 71 70 71 71 71 69 68 68 69 68 69 69
72 72 71 72 71 72 73 73 73 73 73 73 73 73 73 74 74 74 74 74 74 74 74 74 73 73 73 72 73 72 74 67 68 67 67 66 69 72 72 73 72 73 72 73 73 73 73 73 72 73 72 73 71 69 70 71 71 71 72 71 71 71 72 73 69 69 72 72 71 73 72 73 70 70 70 68 68 70 70 70 70 69 68 68 67
72 71 71 72 72 73 73 73 73 73 73 73 73 73 73 73 74 75 73 73 73 74 73 75 74 73 73 72 71 72 73 69 64 65 65 65 68 73 73 72 72 72 72 73 74 73 73 72 73 72 72 72 65 62 65 71 70 70 70 70 70 70 70 70 68 67 67 65 63 63 63 63 63 62 62 65 67 69 69 69 68 68 67 65 66
73 72 72 72 72 72 72 73 72 72 73 72 72 73 74 74 73 74 73 72 73 73 75 74 74 73 73 73 72 72 72 71 65 63 62 62 71 72 73 73 72 73 72 72 73 73 72 73 73 72 72 68 61 61 63 68 69 68 68 67 66 67 67 67 68 68 67 66 65 64 64 65 65 64 64 64 64 68 68 66 67 68 66 66 65
72 72 72 72 73 73 73 73 73 73 72 72 72 73 73 74 74 75 74 74 74 75 73 72 73 73 72 72 72 72 73 70 61 61 61 62 68 72 73 72 71 71 72 70 72 72 72 72 72 71 68 63 58 59 61 65 66 66 65 65 64 64 65 65 65 65 65 65 66 66 66 67 69 70 71 69 66 67 68 68 69 68 67 67 67
74 74 74 74 74 74 74 73 73 73 73 72 73 74 75 74 74 74 74 74 73 73 74 71 70 72 72 72 72 72 73 72 66 59 60 61 64 71 71 71 71 71 70 71 71 71 72 71 67 61 59 58 56 56 57 60 63 63 63 63 62 63 63 62 63 64 63 63 64 65 67 68 69 69 70 70 69 68 68 69 70 69 68 68 67
73 74 74 74 74 74 74 74 73 73 73 73 74 74 75 75 75 73 74 75 74 74 73 72 70 71 70 73 73 73 71 71 65 57 58 60 62 67 70 70 69 70 70 70 70 69 71 69 64 60 57 56 55 54 54 56 60 62 63 63 63 63 61 61 62 63 63 64 65 66 67 68 68 68 69 69 70 69 70 70 71 71 70 69 68
73 73 73 73 72 72 72 74 72 73 73 74 73 73 74 74 71 72 75 73 71 72 72 72 73 73 71 71 70 72 74 73 69 59 58 57 58 64 69 70 67 69 70 69 68 68 69 70 65 60 56 56 55 53 52 54 57 62 65 57 57 57 63 63 63 63 65 65 65 65 65 66 66 67 67 67 67 67 67 68 69 70 70 71 69
71 73 73 72 72 72 72 71 72 71 72 72 71 71 73 73 72 74 71 70 71 70 70 71 72 73 74 72 74 74 73 71 69 67 59 56 57 58 61 67 62 71 69 68 68 69 68 68 65 62 56 54 53 52 52 52 59 62 56 55 56 57 61 62 64 65 66 66 66 66 67 65 64 64 64 64 65 66 66 66 67 68 69 70 71
72 71 71 71 70 70 71 69 69 69 69 70 71 71 71 71 71 71 71 72 72 72 73 70 71 70 69 73 71 73 72 70 69 67 63 57 56 56 57 58 62 66 67 67 68 68 69 68 65 53 50 48 48 52 54 57 61 56 54 56 58 61 62 64 65 65 65 64 64 63 63 63 63 63 63 63 64 65 66 67 66 66 65 66 66
71 70 69 68 68 67 68 67 65 66 66 66 69 69 68 69 71 73 74 71 72 70 70 69 71 71 73 72 72 73 72 71 69 67 65 60 57 55 56 57 57 59 67 67 67 68 65 58 55 52 53 52 52 53 56 58 55 54 55 56 61 62 64 66 64 64 64 63 62 62 62 63 63 64 65 65 66 66 66 66 66 65 66 65 66
71 70 67 66 64 64 63 62 62 65 64 64 64 66 65 66 67 70 68 67 69 70 71 69 68 70 72 74 73 72 71 72 71 69 68 67 64 59 58 60 67 64 67 68 67 63 59 57 56 54 56 57 62 62 63 65 62 60 60 60 62 63 64 64 64 63 63 63 62 62 62 63 64 64 65 66 65 65 66 65 64 63 63 64 64
71 69 69 63 64 66 63 61 61 62 63 62 62 63 67 63 63 69 67 63 64 65 67 68 67 67 69 70 72 73 73 71 71 71 72 71 70 68 63 63 65 66 66 67 67 67 67 65 63 61 60 62 62 64 64 65 64 63 63 63 63 64 65 65 64 63 64 63 63 63 63 64 64 65 66 65 64 66 66 65 63 62 62 63 63
66 65 62 61 64 62 61 61 63 59 59 60 61 59 61 61 62 66 67 65 64 64 63 66 65 63 65 68 71 71 70 67 65 66 66 65 66 66 66 67 65 65 63 61 61 62 63 65 64 64 64 64 64 63 63 64 64 64 64 64 64 65 65 65 64 66 65 64 64 64 64 64 64 64 64 63 63 63 66 64 63 63 62 62 61
66 62 60 59 63 66 57 59 61 61 62 67 67 68 67 65 69 67 65 66 64 60 60 61 62 61 61 65 65 67 68 65 62 52 57 52 59 62 62 60 59 61 59 53 58 60 62 64 65 66 66 65 65 65 65 66 65 65 65 67 67 66 65 64 63 64 66 65 65 65 63 63 65 65 63 62 64 64 65 64 64 63 62 62 59
68 63 62 58 58 59 57 57 62 65 58 60 66 65 60 53 57 69 63 58 52 50 54 61 60 63 64 63 63 64 63 62 50 45 43 43 45 45 46 43 44 53 53 52 57 59 61 62 64 64 64 64 63 63 63 64 64 63 65 65 65 66 64 64 63 63 64 66 64 63 64 66 63 63 63 63 65 64 64 63 64 63 61 59 58
68 69 70 65 66 66 63 61 67 70 68 65 67 68 66 65 47 49 56 55 50 43 43 45 49 52 60 63 56 52 52 47 44 42 42 42 42 42 42 42 41 42 45 55 59 60 62 61 62 63 64 60 59 59 60 59 59 59 61 59 58 58 62 62 63 64 62 64 63 62 62 61 61 62 63 62 63 64 64 65 64 64 61 60 58
71 68 65 66 70 70 66 68 66 68 72 71 71 70 68 69 69 50 46 49 48 45 44 43 43 45 46 50 61 56 49 45 43 42 42 42 42 41 41 41 41 42 44 47 57 60 61 62 63 62 60 58 57 59 57 56 57 58 57 56 57 58 64 62 65 60 60 59 59 60 60 60 60 61 62 60 62 63 63 63 62 62 61 58 57
69 69 70 70 69 70 67 69 70 68 67 70 71 70 68 65 67 67 64 46 47 47 45 43 42 42 42 42 41 41 43 44 43 42 41 41 41 40 40 42 42 41 44 54 60 61 62 61 59 59 58 58 58 58 59 58 58 58 60 61 60 59 65 66 66 65 64 62 64 61 60 59 60 60 59 59 60 63 64 63 62 62 61 59 58
69 70 70 71 70 72 71 71 69 70 72 72 68 68 68 68 67 67 67 65 66 57 44 42 44 46 42 42 42 42 42 42 42 42 41 41 41 42 41 50 46 43 49 58 59 60 61 60 58 59 60 61 59 58 61 62 62 63 62 62 63 63 68 66 67 66 65 65 62 60 60 59 60 59 59 59 58 61 60 61 62 60 60 60 58
69 68 68 69 71 70 68 69 68 71 69 69 68 68 68 69 67 65 66 66 68 68 69 65 47 45 55 48 42 42 42 42 42 42 42 42 42 41 42 57 63 57 54 57 59 59 60 61 60 61 61 60 61 62 62 62 62 62 61 61 61 63 65 63 61 64 66 64 63 62 62 61 60 59 58 58 58 64 60 61 60 59 59 59 59
68 68 67 66 68 69 68 70 70 68 69 67 67 65 66 67 63 64 65 67 66 66 67 69 66 51 47 45 42 41 41 42 42 41 42 41 41 41 60 62 62 63 62 62 61 62 63 63 62 63 63 63 62 63 63 62 62 62 62 61 60 60 60 61 63 65 64 63 61 62 60 60 60 59 58 57 57 59 61 59 58 59 59 59 59
68 67 67 67 68 66 67 67 69 68 65 65 66 67 65 65 66 65 66 69 67 67 69 67 66 64 57 61 53 42 41 41 41 42 42 42 41 51 58 60 61 63 63 63 63 62 62 62 62 63 63 62 62 62 62 62 62 63 63 64 64 63 61 61 61 62 63 60 61 62 62 60 60 60 58 57 59 60 57 57 59 60 58 58 59
65 64 65 67 67 67 68 69 64 65 70 66 69 68 66 66 66 66 67 67 66 64 66 66 65 64 64 66 64 61 52 45 43 44 42 44 50 56 60 63 64 63 63 63 63 63 63 63 63 64 64 64 64 64 63 63 63 63 64 65 64 63 63 62 62 62 62 61 60 62 62 61 61 60 59 57 61 61 60 58 56 59 58 58 57
64 64 63 63 65 67 64 64 65 64 64 64 63 64 64 64 63 64 65 64 64 65 64 64 62 61 61 62 62 62 63 63 63 64 65 64 64 64 64 64 64 64 64 64 64 64 63 63 64 64 64 63 63 63 63 63 64 65 64 65 64 64 63 62 62 62 60 60 60 61 61 61 60 60 62 60 59 59 59 57 57 57 57 58 57
61 62 63 63 63 63 63 64 63 63 63 62 61 62 62 62 62 63 63 63 63 63 63 62 61 60 60 61 59 59 61 64 64 63 63 64 65 64 64 63 64 62 62 62 61 62 62 63 64 63 62 61 61 61 61 62 62 64 64 64 63 62 62 62 61 60 60 60 60 60 59 58 58 59 59 61 60 58 59 58 56 55 53 53 54
63 64 64 63 63 62 63 61 61 62 62 62 62 62 61 62 62 62 61 61 61 62 62 62 60 60 59 56 51 52 63 60 60 60 60 60 60 60 60 60 60 58 58 58 58 58 59 61 62 62 59 59 58 58 58 57 58 58 57 57 59 59 57 56 56 56 56 57 57 59 59 59 59 58 56 59 59 58 58 57 54 54 54 54 53
63 62 63 62 64 62 61 61 62 63 63 63 62 61 61 61 61 61 61 60 60 59 60 60 60 60 56 52 51 49 61 59 59 59 59 59 59 58 58 58 57 58 57 56 56 56 56 57 57 55 54 53 53 52 52 52 52 52 51 51 51 51 51 50 51 52 53 55 57 58 58 58 58 58 57 59 57 57 56 54 53 55 54 53 52
63 62 62 62 62 61 61 61 62 61 61 61 60 60 60 60 59 59 59 58 58 57 57 57 57 59 60 54 55 54 59 58 58 58 57 57 57 57 56 56 56 56 56 55 54 55 55 54 54 53 52 51 51 50 48 48 49 47 45 45 45 45 44 44 45 46 48 51 53 55 56 57 57 57 58 58 58 57 56 55 54 53 53 55 55
61 61 61 61 61 61 61 60 60 60 60 60 59 59 58 58 57 57 56 57 56 56 56 55 55 56 57 57 56 56 57 57 56 55 57 56 56 55 55 55 55 55 54 54 53 53 53 53 52 52 51 49 49 49 48 48 46 45 44 43 44 44 43 42 42 43 44 47 50 50 51 54 57 57 57 57 57 58 57 56 55 54 53 54 55
58 58 57 57 58 59 59 61 59 59 60 59 58 57 58 56 55 55 55 55 54 55 54 54 54 54 55 55 55 55 54 55 55 55 55 55 54 54 53 54 54 55 53 53 53 52 52 51 51 51 50 49 48 49 48 48 47 46 45 44 42 41 41 41 42 42 44 47 47 48 49 51 53 56 56 56 57 58 58 57 57 57 55 54 53
55 55 56 56 56 57 57 57 59 58 57 55 55 55 55 54 54 54 53 53 53 52 52 52 52 53 53 53 52 53 52 53 53 53 53 52 52 52 53 52 53 53 52 52 52 52 51 51 50 50 49 50 50 49 48 48 47 47 47 44 41 40 40 40 40 42 43 44 44 45 47 50 53 55 58 59 59 59 58 59 59 58 58 57 56
56 55 55 56 56 57 57 58 56 55 55 54 53 52 52 52 52 53 53 52 50 51 51 51 51 50 51 52 51 52 50 50 51 51 53 53 52 52 52 52 51 51 52 53 53 50 51 51 50 51 49 49 48 51 47 46 46 45 43 41 40 39 39 38 39 41 42 42 42 43 46 50 52 55 56 57 58 58 58 58 58 59 59 58 57
54 53 54 55 55 55 55 55 54 54 53 53 52 51 51 51 50 51 50 50 49 49 48 50 49 50 50 49 49 48 48 49 51 50 49 49 49 50 51 52 51 49 51 50 51 51 50 49 50 51 49 50 49 47 46 44 43 42 41 39 39 39 38 37 38 40 39 38 40 43 46 49 52 53 53 55 55 56 56 56 57 57 57 57 57
53 54 52 53 53 54 54 52 53 52 51 52 51 50 50 49 49 49 50 48 48 48 47 46 46 46 47 48 47 46 47 47 47 47 46 47 48 50 50 51 51 49 48 48 49 51 53 51 51 49 48 48 47 45 42 41 41 41 40 39 39 38 37 38 37 37 36 38 39 40 43 46 50 51 52 53 53 53 53 54 55 56 56 56 57
51 51 51 50 50 50 53 52 50 50 50 49 49 48 48 48 47 47 47 47 46 46 46 46 46 45 45 45 46 45 46 45 44 45 44 45 46 47 47 48 49 47 47 48 47 48 48 50 51 48 47 46 43 42 40 40 40 40 40 40 39 37 36 36 36 35 34 36 37 39 42 45 49 49 49 50 51 50 50 51 53 54 56 56 56
50 49 49 49 49 49 49 48 48 49 48 48 46 47 47 46 45 45 45 44 45 45 45 45 46 44 45 44 46 45 45 45 44 44 44 44 45 45 45 46 46 47 47 48 47 46 48 48 46 47 45 44 42 41 40 39 40 41 42 39 38 36 34 33 35 33 33 34 37 40 43 47 49 49 48 48 49 49 49 50 52 52 53 54 55